Weather in Chongar

Ukraine / Kherson District     46°01′49″N   34°32′44″E
temp.,
°C
wind,
m/s
gust,
m/s
humid.,
%
clouds,
%
prec.,
mm/h
press.,
hPa
HPBL,
m
24 january, mon
mon2423:00−1n111286100 0.1 1019796
02:00−2n111288100 0.2 1019694
05:00−2n91092100 0.7 1019648
08:00−2n9989100 1.9 1019634
11:00−2n6682100 0.2 1020766
14:00−1nnw4586100 0.4 1020521
17:00−1nnw5593100 0.3 1021461
20:00−1nnw4491100 0.8 1021431
25 january, tue
tue2523:00−1nnw3291100 0.5 1022363
02:00−2n4393100 1.1 1023337
05:00−2nnw4394100 0.9 1023317
08:00−3nw4489100 1.5 1023449
11:00−3nw2290100 0.4 1024329
14:00−3wnw3391100 0.9 1023379
17:00−2wnw3480100 0.3 1022642
20:00−2wnw2289100 0.5 1022368
26 january, wed
wed2623:00−3nw4387100 0.3 1022473
02:00−3wnw4479100 0.3 1020735
05:00−3wnw3388100 0.1 1020401
08:00−3w338098 0.3 1020534
11:00−3w227682 0.0 1020500
14:00−2wnw237478 0.0 1019550
17:00−1nw337142 0.0 1020604
20:00−2n327428 0.0 1021476
27 january, thu
thu2723:00−3n44815 0.0 1021361
02:00−4n54855 0.0 1021332
05:00−4n558414 0.0 1022343
08:00−4nnw338459 0.0 1022353
11:00−4wnw4479100 0.0 1023503
14:00−2w6678100 0.0 1022755
17:00−1w6776100 0.0 1021775
20:00−1sw567683 0.0 1021452
28 january, fri
fri2823:00−1sw81080100 0.0 1020403
02:000sw81290100 0.0 1020525
05:00+1sw81296100 0.0 1018445
08:00+2sw71196100 0.1 1018521
11:00+4sw81483100 0.0 1017669
14:00+5sw81383100 0.0 1016497
17:00+4wsw8148599 0.0 1015491
20:00+3w71090100 0.1 1016582